Location: Marineo
(37.9500°N, 13.4170°E)
Time: 16:54:12
(UTC+02:00)

ISS - Visible Passes

Search period start: 05 July 2022 00:00
Search period end: 15 July 2022 00:00
Orbit: 414 x 420 km, 51.6° (Epoch: 05 July)

Date Brightness Start Highest point End Pass type
(mag) Time Alt. Az. Time Alt. Az. Time Alt. Az.
05 Jul -0.8 01:48:30 16° NE 01:48:30 16° NE 01:49:18 10° NE visible
05 Jul -0.8 03:22:03 10° NW 03:23:26 12° NNW 03:24:49 10° N visible
06 Jul -1.0 02:34:35 15° NNW 02:34:58 15° NNW 02:37:04 10° NNE visible
07 Jul -0.8 01:47:44 18° N 01:47:44 18° N 01:49:10 10° NNE visible
07 Jul -0.3 05:01:49 10° N 05:02:25 10° NNE 05:03:00 10° NNE visible
08 Jul -0.5 01:00:48 12° NNE 01:00:48 12° NNE 01:01:10 10° NNE visible
09 Jul -0.6 01:46:35 12° NNW 01:47:10 12° NNW 01:48:39 10° N visible
09 Jul -0.7 05:00:54 10° NNW 05:03:09 16° NNE 05:05:23 10° ENE visible
10 Jul -0.6 00:59:16 15° N 00:59:16 15° N 01:00:50 10° NNE visible
10 Jul -0.4 04:13:05 10° N 04:14:37 13° NNE 04:16:10 10° NE visible
11 Jul -0.9 00:11:27 18° N 00:11:27 18° N 00:12:53 10° NNE visible
11 Jul -0.1 03:25:45 10° N 03:26:02 10° NNE 03:26:19 10° NNE visible
11 Jul -1.7 05:00:33 10° NW 05:03:37 32° NNE 05:06:41 10° E visible
11 Jul -2.7 21:42:21 10° S 21:45:06 24° SE 21:47:52 10° ENE visible
11 Jul -2.0 23:18:41 10° W 23:21:45 33° NNW 23:24:49 10° NE visible
12 Jul -0.1 00:58:59 10° NNW 00:59:19 10° NNW 00:59:40 10° N visible
12 Jul -1.0 04:12:30 10° NNW 04:15:11 22° NNE 04:17:53 10° E visible
12 Jul -3.1 22:30:06 10° WSW 22:33:22 55° NW 22:36:40 10° NE visible
13 Jul -0.3 00:09:10 10° NW 00:10:43 13° NNW 00:12:16 10° N visible
13 Jul -0.5 03:24:31 10° NNW 03:26:40 16° NNE 03:28:50 10° ENE visible
13 Jul -3.8 05:00:27 10° NW 05:03:50 89° SSW 05:07:11 10° SE visible
13 Jul -3.9 21:41:44 10° SW 21:45:02 81° SE 21:48:24 10° NE visible
13 Jul -0.6 23:19:55 10° WNW 23:22:09 16° NNW 23:24:23 10° NNE visible
14 Jul -0.2 02:36:40 10° N 02:38:06 12° NNE 02:39:32 10° NE visible
14 Jul -2.8 04:12:12 10° NW 04:15:29 50° NE 04:18:45 10° ESE visible
14 Jul -3.4 20:53:37 10° SSW 20:56:46 41° SE 20:59:56 10° ENE visible
14 Jul -1.2 22:30:54 10° W 22:33:38 23° NNW 22:36:22 10° NNE visible
